Weather reports worldwide

Advertisment
Levens Hall, United Kingdom (99172): temperature & dewpoint: 29.07.2020 00:00:00 - 04.08.2020 00:00:00 (BST)Levens Hall, United Kingdom (99172): precipitation: 29.07.2020 00:00:00 - 04.08.2020 00:00:00 (BST)
Date & Time tt [°C] td [°C] rr [mm]
04.08.2020 00:00:00 9,3 8,0 0,0
03.08.2020 23:00:00 10,1 8,2 0,0
03.08.2020 22:00:00 10,8 8,0 0,0
03.08.2020 21:00:00 12,4 7,8 0,0
03.08.2020 20:00:00 15,2 7,4 0,0
03.08.2020 19:00:00 16,1 7,0 0,0
03.08.2020 18:00:00 17,3 7,7 0,0
03.08.2020 17:00:00 17,6 8,3 0,0
03.08.2020 16:00:00 16,4 7,9 0,0
03.08.2020 15:00:00 16,3 7,2 0,0
03.08.2020 14:00:00 16,2 8,6 0,0
03.08.2020 13:00:00 15,3 8,9 0,0
03.08.2020 12:00:00 15,6 8,6 0,0
03.08.2020 11:00:00 15,1 9,0 0,0
03.08.2020 10:00:00 14,6 9,5 0,0
03.08.2020 09:00:00 12,4 12,0 0,0
03.08.2020 08:00:00 11,2 11,1 0,0
03.08.2020 07:00:00 10,7 10,5 0,0
03.08.2020 06:00:00 10,3 10,1 0,0
03.08.2020 05:00:00 10,0 9,8 0,0
03.08.2020 04:00:00 9,8 9,4 0,0
03.08.2020 03:00:00 10,7 10,3 0,0
03.08.2020 02:00:00 11,5 10,9 0,0
03.08.2020 01:00:00 12,3 11,6 0,2
03.08.2020 00:00:00 12,4 11,2 0,8
02.08.2020 23:00:00 13,4 12,0 0,0
02.08.2020 22:00:00 13,6 11,6 0,0
02.08.2020 21:00:00 14,2 11,7 0,0
02.08.2020 20:00:00 15,0 10,9 0,0
02.08.2020 19:00:00 15,9 11,0 0,0
02.08.2020 18:00:00 16,6 11,1 0,0
02.08.2020 17:00:00 16,4 11,1 0,0
02.08.2020 16:00:00 16,1 11,1 0,0
02.08.2020 15:00:00 17,2 11,0 0,0
02.08.2020 14:00:00 17,0 12,4 0,0
02.08.2020 13:00:00 17,2 12,7 0,0
02.08.2020 12:00:00 16,1 11,3 1,2
02.08.2020 11:00:00 16,6 12,7 0,0
02.08.2020 10:00:00 14,5 12,7 0,0
02.08.2020 09:00:00 13,7 12,6 0,0
02.08.2020 08:00:00 13,5 13,1 2,4
02.08.2020 07:00:00 12,7 12,2 3,4
02.08.2020 06:00:00 12,1 11,6 0,0
02.08.2020 05:00:00 12,6 11,9 0,0
02.08.2020 04:00:00 13,0 12,3 0,2
02.08.2020 03:00:00 13,2 12,2 0,0
02.08.2020 02:00:00 13,1 11,8 0,2
02.08.2020 01:00:00 13,9 11,7 0,0
02.08.2020 00:00:00 13,5 12,3 0,0
01.08.2020 23:00:00 13,6 11,7 0,0
01.08.2020 22:00:00 14,2 11,5 0,0
01.08.2020 21:00:00 14,8 11,5 0,0
01.08.2020 20:00:00 15,3 11,1 0,0
01.08.2020 19:00:00 15,7 10,6 0,0
01.08.2020 18:00:00 16,1 10,5 0,0
01.08.2020 17:00:00 16,6 11,2 0,0
01.08.2020 16:00:00 17,6 11,3 0,0
01.08.2020 15:00:00 18,0 11,2 0,0
01.08.2020 14:00:00 17,1 11,3 0,0
01.08.2020 13:00:00 18,1 13,2 0,0
01.08.2020 12:00:00 16,4 12,5 0,0
01.08.2020 11:00:00 16,8 13,9 0,0
01.08.2020 10:00:00 17,0 15,3 0,0
01.08.2020 09:00:00 16,6 14,7 0,0
01.08.2020 08:00:00 16,1 15,0 0,0
01.08.2020 07:00:00 16,0 15,3 0,0
01.08.2020 06:00:00 15,9 15,0 0,0
01.08.2020 05:00:00 16,1 15,0 0,0
01.08.2020 04:00:00 16,1 15,2 0,0
01.08.2020 03:00:00 16,2 15,0 0,0
01.08.2020 02:00:00 16,4 15,1 0,0
01.08.2020 01:00:00 16,6 15,1 0,0
01.08.2020 00:00:00 16,5 14,7 0,0
31.07.2020 23:00:00 17,3 14,2 0,0
31.07.2020 22:00:00 18,2 16,7 0,0
31.07.2020 21:00:00 18,5 16,7 0,0
31.07.2020 20:00:00 19,3 16,6 0,0
31.07.2020 19:00:00 20,8 15,3 0,0
31.07.2020 18:00:00 22,4 15,4 0,0
31.07.2020 17:00:00 26,1 18,2 0,0
31.07.2020 16:00:00 27,8 17,3 0,0
31.07.2020 15:00:00 28,8 18,0 0,0
31.07.2020 14:00:00 27,8 17,4 0,0
31.07.2020 13:00:00 28,3 16,4 0,0
31.07.2020 12:00:00 27,1 16,6 0,0
31.07.2020 11:00:00 25,8 15,4 0,0
31.07.2020 10:00:00 24,3 14,7 0,0
31.07.2020 09:00:00 19,8 15,8 0,0
31.07.2020 08:00:00 16,4 14,2 0,0
31.07.2020 07:00:00 14,2 12,5 0,0
31.07.2020 06:00:00 13,7 12,4 0,0
31.07.2020 05:00:00 13,4 12,0 0,0
31.07.2020 04:00:00 14,9 11,5 0,0
31.07.2020 03:00:00 15,7 13,5 0,0
31.07.2020 02:00:00 14,2 12,3 0,0
31.07.2020 01:00:00 16,8 12,0 0,0
31.07.2020 00:00:00 18,5 13,5 0,0
30.07.2020 23:00:00 15,6 14,0 0,0
30.07.2020 22:00:00 17,1 14,4 0,0
30.07.2020 21:00:00 19,4 15,0 0,0
30.07.2020 20:00:00 20,6 15,6 0,0
30.07.2020 19:00:00 22,5 15,7 0,0
30.07.2020 18:00:00 22,0 14,8 0,0
30.07.2020 17:00:00 21,3 14,1 0,0
30.07.2020 16:00:00 21,5 15,4 0,0
30.07.2020 15:00:00 20,2 15,2 0,0
30.07.2020 14:00:00 19,4 14,1 0,0
30.07.2020 13:00:00 18,1 14,2 0,0
30.07.2020 12:00:00 17,0 14,7 0,2
30.07.2020 11:00:00 16,3 14,4 0,0
30.07.2020 10:00:00 14,4 14,0 0,6
30.07.2020 09:00:00 13,5 13,2 0,8
30.07.2020 08:00:00 12,6 12,1 1,4
30.07.2020 07:00:00 12,3 11,8 1,6
30.07.2020 06:00:00 11,7 10,8 1,2
30.07.2020 05:00:00 11,7 10,3 0,4
30.07.2020 04:00:00 11,8 9,8 0,0
30.07.2020 03:00:00 11,4 9,6 0,0
30.07.2020 02:00:00 11,2 9,7 0,0
30.07.2020 01:00:00 10,4 9,2 0,0
30.07.2020 00:00:00 10,7 9,1 0,0
29.07.2020 23:00:00 11,6 9,2 0,0
29.07.2020 22:00:00 12,1 9,0 0,0
29.07.2020 21:00:00 12,9 9,7 0,0
29.07.2020 20:00:00 14,1 8,5 0,0
29.07.2020 19:00:00 14,6 8,3 0,0
29.07.2020 18:00:00 15,0 8,3 0,0
29.07.2020 17:00:00 15,7 7,6 0,0
29.07.2020 16:00:00 16,3 8,1 0,0
29.07.2020 15:00:00 15,4 8,3 0,0
29.07.2020 14:00:00 15,8 9,3 0,0
29.07.2020 13:00:00 14,6 7,5 0,0
29.07.2020 12:00:00 14,5 8,4 0,0
29.07.2020 11:00:00 15,1 7,9 0,0
29.07.2020 10:00:00 14,2 7,6 0,0
29.07.2020 09:00:00 14,7 8,4 0,0
29.07.2020 08:00:00 12,7 9,9 0,0
29.07.2020 07:00:00 12,5 8,9 0,0
29.07.2020 06:00:00 12,5 9,5 0,0
29.07.2020 05:00:00 12,3 9,4 0,0
29.07.2020 04:00:00 12,6 9,1 0,0
29.07.2020 03:00:00 12,2 8,9 0,0
29.07.2020 02:00:00 12,5 8,5 0,0
29.07.2020 01:00:00 12,4 8,3 0,0
29.07.2020 00:00:00 12,8 8,2 0,0

tt = temperature
td = dewpoint
rr = precipitation

Next stations